Location: Oroua River
(40.4333°S, 175.4333°E)
Time: 13:31:15
(UTC+00:00)

Meteor 2-14 Rocket - Pass Details

Date: 03 February 2023
Orbit: 938 x 955 km, 82.5° (Epoch: 23 March)

Event Time Altitude Azimuth Distance (km) Brightness Sun altitude
Rises 15:32:36 0° 189° (S) 3,669 8.0 -19.3°
Reaches altitude 10° 15:35:07 10° 189° (S) 2,716 7.3 -19.0°
Maximum altitude 15:41:21 83° 275° (W) 973 4.4 -18.1°
Drops below altitude 10° 15:47:29 10° 3° (N) 2,672 6.4 -17.2°
Enters shadow 15:47:38 - 3° (N) 2,731 6.5 -17.2°
